Volver al catálogo

CZ-6A DEB

ActivoPO
NORAD 60873·DEBRIS·🇨🇳 China

Lanzado Aug 6, 2024 desde Taiyuan Satellite Launch Center

Loading…

Próximos Pases (próximas 24 horas)

TLE

ActualizadoSource: Space-Track

Época: Sep 14, 2026, 00:52 UTC

1 60873U 24140KC  26257.03669396  .00000908  00000-0  44781-3 0  9993
2 60873  89.1078 275.5064 0069699 273.7323  85.5896 14.15497212107414

Sigue CZ-6A DEB en tiempo real con AllMySat

Download on the App Store